Weather in Verkhniy Buzan

Russia / Astrakhan Oblast     46°37′27″N   48°09′24″E
temp.,
°C
wind,
m/s
gust,
m/s
humid.,
%
clouds,
%
prec.,
mm/h
press.,
hPa
HPBL,
m
1 august, sun
sun101:00+23s22595 0.0 101224
04:00+22s226079 0.0 101214
07:00+25sse114882 0.0 101285
10:00+33se342656 0.0 10121241
13:00+37s441912 0.0 10113008
16:00+37sse642367 0.0 10102563
19:00+35s542333 0.1 1010982
22:00+27ssw343517 0.1 101155
2 august, mon
mon201:00+25ssw22415 0.0 101115
04:00+24sse003999 0.0 101111
07:00+28ne123035 0.0 101272
10:00+36ese34167 0.0 10121065
13:00+40sse45105 0.0 10114265
16:00+40sse75970 0.0 10104067
19:00+36se5712100 0.0 1011496
22:00+28sse342767 0.0 101152
3 august, tue
tue301:00+26s3434100 0.0 101147
04:00+25ssw113935 0.0 101111
07:00+28ne112894 0.0 101241
10:00+37e231218 0.0 1011863
13:00+41sse3487 0.0 10104727
16:00+42sse64734 0.0 10094971
19:00+39s68102 0.0 1009932
22:00+29ssw34225 0.0 101141
4 august, wed
wed401:00+27ssw33250 0.0 101023
04:00+25sw22320 0.0 101113
07:00+28ssw22320 0.0 101163
10:00+37s34131 0.0 10111014
13:00+42sw5595 0.0 10093991
16:00+42sw6595 0.0 10094409
19:00+38s67115 0.0 1009653
22:00+29wsw452546 0.0 101152
5 august, thu
thu501:00+28w34297 0.0 101151
04:00+26nnw3639100 0.0 101086
07:00+28nne374120 0.0 1011228
10:00+33nnw1093168 0.0 10121484
13:00+29nnw7741100 0.0 1013711
16:00+32nw363399 0.1 10131196
19:00+32n56320 0.0 10121671
22:00+26n33410 0.0 101340